Panna Maria, TX (78144)

4:56 AM CST on February 13, 2016 (GMT -0600)
Karnes County | | Change Station
CLOSE
Current Station
Personal Weather Station
Location: Karnes City, TX
Elevation: 381 ft
Nearby Weather Stations
Active Advisory: Dense Fog Advisory

Elev 381 ft 28.88 °N, 97.86 °W | Updated 8 seconds ago

Partly Cloudy
Partly Cloudy
52.5 °F
Feels Like 52.5 °F
N
0.0
Wind Variable Wind from SSE
Gusts 0.0 mph

Today
High -- | Low -- °F
--% Chance of Precip.
Yesterday
High -- | Low -- °F
Precip. -- in
Pressure 30.29 in
Visibility 10.0 miles
Clouds Clear
Dew Point 52 °F
Humidity 98%
Rainfall 0.00 in
Snow Depth Not available.
7:12 AM 6:19 PM
Waxing Crescent, 29% visible
METAR KPEZ 131035Z AUTO 00000KT 10SM CLR 08/06 A3029 RMK AO2 T00760064
Pressure 30.29 in
Visibility 10.0 miles
Clouds Clear
Dew Point 52 °F
Humidity 98%
Rainfall 0.00 in
Snow Depth Not available.
7:12 AM 6:19 PM
Waxing Crescent, 29% visible
METAR KPEZ 131035Z AUTO 00000KT 10SM CLR 08/06 A3029 RMK AO2 T00760064

10-Day Weather Forecast

Almanac

Astronomy

Feb. 13, 2016 Rise Set
Actual Time
Civil Twilight
Nautical Twilight
Astronomical Twilight
Moon
Length of Visible Light
Length of Day
Tomorrow will be .
, % of the Moon is Illuminated

Today's Extremes

State Highs State Lows

Community

WunderPhotos

Upload Photos

1,892,537 photos uploaded!

WunderBlog® & News

Nearby

Air Quality

  Air Quality AQ Index Pollutant
Not available.

Snow Depth

Station Depth Elevation

Earthquake Activity

City Distance Mag. Time & Date
Minimum magnitude displayed is 2.5.

Coastal Water Temperatures

Place Temperature

Stations

Nearby Weather Stations

Station Location Temp. Windchill Dew Point Humidity Wind Precip. Elev Updated Type
                   

Watches & Warnings

Dense Fog Advisory
Issued: 4:53 AM CST Feb. 13, 2016 – National Weather Service

... Dense fog advisory in effect until 9 am CST this morning...

The National Weather Service in Austin/San Antonio has issued a
dense fog advisory... which is in effect until 9 am CST this
morning.

* Visibility... one half to one quarter of a mile

* impacts... poor visibility will cause hazardous driving
conditions.

Precautionary/preparedness actions...

A dense fog advisory means visibilities will frequently be
reduced to less than one quarter mile. If driving... slow down...
use your headlights... and leave plenty of distance ahead of you.